Location: Nelson
(41.2830°S, 173.2830°E)
Time: 18:06:25
(UTC+12:00)

H-2A R/B - Pass Details

Date: 14 May 2021
Orbit: 576 x 655 km, 98.5° (Epoch: 19 June)

Event Time Altitude Azimuth Distance (km) Brightness Sun altitude
Rises 18:00:31 0° 358° (N) 2,821 5.7 -8.1°
Reaches altitude 10° 18:02:46 10° 350° (N) 1,919 5.0 -8.5°
Maximum altitude 18:06:42 41° 280° (W) 868 3.5 -9.2°
Drops below altitude 10° 18:10:39 10° 208° (SSW) 1,926 4.8 -9.9°
Sets 18:12:55 0° 201° (SSW) 2,832 5.5 -10.3°
